Location: Newark
(50.0306°N, 2.3272°E)
Time: 03:00:09
(UTC+00:00)

A-11 Canister half - Pass Details

Date: 10 December 2019
Orbit: 1525 x 1684 km, 47.3° (Epoch: 19 January)

Event Time Altitude Azimuth Distance (km) Brightness Sun altitude
Rises 07:03:15 0° 242° (WSW) 4,921 11.3 -5.5°
Reaches altitude 10° 07:06:26 10° 239° (WSW) 3,941 10.9 -5.1°
Maximum altitude 07:16:26 66° 161° (SSE) 1,806 9.7 -3.7°
Drops below altitude 10° 07:26:22 10° 82° (E) 3,913 12.0 -2.3°
Sets 07:29:30 0° 80° (E) 4,885 12.4 -1.9°
